Location: Beuerbach
(48.1459°N, 10.9174°E)
Time: 03:08:33
(UTC+00:00)

Genesis I - Pass Details

Date: 23 May 2024
Orbit: 432 x 466 km, 64.5° (Epoch: 19 June)

Event Time Altitude Azimuth Distance (km) Brightness Sun altitude
Exits shadow 02:06:41 17° 224° (SW) 1,194 4.4 -11.0°
Maximum altitude 02:09:15 77° 310° (NW) 468 2.9 -10.7°
Drops below altitude 10° 02:12:49 10° 36° (NE) 1,601 7.3 -10.3°
Sets 02:14:57 0° 38° (NE) 2,487 9.0 -10.1°
